Lake Charles, LA

5:29 AM CST on December 10, 2016 (GMT -0600)
Chennault International

Weather History for KCWF - November, 2012

Change the Weather History Date:

Thursday, November 8, 2012

  Actual Average Record
Temperature  
Mean Temperature 58 °F -  
Max Temperature 71 °F 71 °F 84 °F (2011)
Min Temperature 44 °F 55 °F 39 °F (2008)
Degree Days  
Heating Degree Days 8    
Growing Degree Days 8 (Base 50)    
Moisture  
Dew Point 44 °F    
Average Humidity 70    
Maximum Humidity 89    
Minimum Humidity 31    
Precipitation  
Precipitation 0.00 in - - ()
Sea Level Pressure  
Sea Level Pressure 30.19 in    
Wind  
Wind Speed 3 mph (ESE)    
Max Wind Speed 8 mph    
Max Gust Speed -    
Visibility 10 miles    
Events      
Averages and records for this station are not official NWS values.
T = Trace of Precipitation, MM = Missing Value Source: NWS Daily Summary

Daily Weather History Graph

Daily Weather History Graph

Search for Another Location

Airport or City:

Trip Planner

Search our weather history database for the weather conditions in past years. The results will help you decide how hot, cold, wet, or windy it might be!

Date:

Astronomy

Nov. 08, 2012 Rise Set
Actual Time 6:32 AM CST 5:19 PM CST
Civil Twilight 6:07 AM CST 5:44 PM CST
Nautical Twilight 5:38 AM CST 6:13 PM CST
Astronomical Twilight 5:10 AM CST 6:41 PM CST
Moon 12:52 AM CST (11/8) 1:39 PM CST (11/8)
Length of Visible Light 11h 37m
Length of Day
10h 47m
Waning Crescent, 32% of the Moon is Illuminated
Nov 8
Waning Crescent
Nov 13
New
Nov 20
First Quarter
Nov 28
Full
Dec 6
Last Quarter

Hourly Weather History & Observations

Time (CST) Temp. Windchill Dew Point Humidity Pressure Visibility Wind Dir Wind Speed Gust Speed Precip Events Conditions
12:15 AM 51.6 °F - 41.9 °F 69% 30.15 in 10.0 mi Calm Calm - N/A   Clear
12:35 AM 51.8 °F - 43.0 °F 72% 30.16 in 10.0 mi Calm Calm - N/A   Clear
12:55 AM 50.4 °F - 43.3 °F 77% 30.16 in 10.0 mi Calm Calm - N/A   Clear
1:15 AM 51.3 °F - 43.5 °F 75% 30.17 in 10.0 mi Calm Calm - N/A   Clear
1:35 AM 49.3 °F - 43.7 °F 81% 30.17 in 10.0 mi Calm Calm - N/A   Clear
1:55 AM 49.1 °F - 43.7 °F 82% 30.17 in 10.0 mi Calm Calm - N/A   Clear
2:15 AM 46.6 °F - 42.6 °F 86% 30.17 in 10.0 mi ENE 3.5 mph - N/A   Clear
2:35 AM 48.4 °F - 41.0 °F 76% 30.17 in 10.0 mi ENE 5.8 mph - N/A   Clear
2:55 AM 48.7 °F - 41.0 °F 75% 30.17 in 10.0 mi ENE 5.8 mph - N/A   Clear
3:15 AM 48.7 °F - 40.5 °F 73% 30.17 in 10.0 mi ENE 5.8 mph - N/A   Clear
3:35 AM 48.4 °F - 40.5 °F 74% 30.17 in 10.0 mi East 5.8 mph - N/A   Clear
3:55 AM 47.3 °F - 40.1 °F 76% 30.18 in 10.0 mi East 5.8 mph - N/A   Clear
4:15 AM 46.9 °F - 40.5 °F 78% 30.18 in 10.0 mi East 5.8 mph - N/A   Clear
4:35 AM 47.1 °F - 40.6 °F 78% 30.18 in 10.0 mi East 4.6 mph - N/A   Clear
4:55 AM 46.4 °F 44.3 °F 40.1 °F 79% 30.19 in 10.0 mi East 4.6 mph - N/A   Clear
6:50 AM 44.6 °F 42.2 °F 39.2 °F 81% 30.22 in 10.0 mi East 4.6 mph - N/A   Clear
7:50 AM 51.8 °F - 42.8 °F 71% 30.24 in 10.0 mi East 6.9 mph - N/A   Clear
8:50 AM 55.4 °F - 44.6 °F 67% 30.26 in 10.0 mi ESE 6.9 mph - N/A   Clear
9:55 AM 62.6 °F - 42.8 °F 48% 30.27 in 10.0 mi ESE 5.8 mph - N/A   Clear
10:50 AM 64.4 °F - 41.0 °F 42% 30.26 in 10.0 mi East 8.1 mph - N/A   Clear
11:50 AM 68.0 °F - 39.2 °F 35% 30.23 in 10.0 mi ESE 5.8 mph - N/A   Clear
12:45 PM 69.8 °F - 39.2 °F 33% 30.20 in 10.0 mi East 4.6 mph - N/A   Clear
1:45 PM 71.6 °F - 39.2 °F 31% 30.18 in 10.0 mi Calm Calm - N/A   Clear
2:50 PM 71.6 °F - 42.8 °F 35% 30.16 in 10.0 mi SSE 4.6 mph - N/A   Clear
3:50 PM 69.8 °F - 42.8 °F 38% 30.16 in 10.0 mi South 5.8 mph - N/A   Clear
4:50 PM 64.4 °F - 46.4 °F 52% 30.16 in 10.0 mi SSE 5.8 mph - N/A   Clear
5:50 PM 60.8 °F - 44.6 °F 55% 30.17 in 10.0 mi South 5.8 mph - N/A   Clear
6:50 PM 53.6 °F - 48.2 °F 82% 30.18 in 10.0 mi SSE 5.8 mph - N/A   Clear
7:50 PM 51.8 °F - 46.4 °F 82% 30.19 in 10.0 mi SSE 5.8 mph - N/A   Clear
8:50 PM 66.2 °F - 48.2 °F 52% 30.19 in 10.0 mi SSE 4.6 mph - N/A   Clear
9:15 PM 52.9 °F - 47.8 °F 83% 30.18 in 10.0 mi SE 4.6 mph - N/A   Clear
9:35 PM 52.0 °F - 47.3 °F 84% 30.18 in 10.0 mi SE 4.6 mph - N/A   Clear
9:50 PM 53.6 °F - 48.2 °F 82% 30.18 in 10.0 mi Calm Calm - N/A   Clear
9:55 PM 52.3 °F - 48.2 °F 86% 30.18 in 10.0 mi Calm Calm - N/A   Clear
10:15 PM 52.7 °F - 48.6 °F 86% 30.18 in 10.0 mi SSE 3.5 mph - N/A   Clear
10:35 PM 53.2 °F - 48.7 °F 85% 30.18 in 10.0 mi SE 3.5 mph - N/A   Clear
10:55 PM 52.0 °F - 48.2 °F 87% 30.18 in 10.0 mi SE 3.5 mph - N/A   Clear
11:15 PM 51.8 °F - 48.4 °F 88% 30.18 in 10.0 mi Calm Calm - N/A   Clear
11:35 PM 52.0 °F - 48.6 °F 88% 30.18 in 10.0 mi Calm Calm - N/A   Clear
11:55 PM 51.4 °F - 48.4 °F 89% 30.17 in 10.0 mi Calm Calm - N/A   Clear